Location: Madrid
(40.4000°N, 3.6830°W)
Time: 00:23:11
(UTC+02:00)

ISS - Pass Details

Date: 15 July 2019
Orbit: 409 x 418 km, 51.6° (Epoch: 22 July)

Event Time Altitude Azimuth Distance (km) Brightness Sun altitude
Rises 23:49:25 0° 227° (SW) 2,342 0.0 -18.8°
Enters shadow 23:50:30 - 227° (SW) 1,891 -0.5 -18.9°
Exits shadow 23:57:51 12° 57° (ENE) 1,371 -1.2 -19.8°
Drops below altitude 10° 23:58:05 10° 57° (ENE) 1,465 -1.0 -19.8°
Sets 00:00:14 0° 55° (NE) 2,348 0.1 -20.0°
